Weather observations for the past three days for
Kake - Kake Airport
Imperial (Metric)
Date Time (akdt) Wind (mph) Vis. (mi.) Weather Sky Cond. Temperature (ºF) Relative Humidity Wind Chill (°F) Heat Index (°F) Pressure Precipitation (in)
Air Dwpt 6 hour altimeter (in) sea level (mb) 1 hr 3 hr 6 hr
Max. Min.
20 17:56 Vrbl 3 10.00 Partly Cloudy FEW055 SCT095 68 61 78% 30.19 1022.8
20 16:56 Vrbl 3 10.00 Light Rain SCT046 BKN060 OVC090 68 64 87% 30.19 1022.9
20 15:56 Calm 10.00 Overcast OVC090 71.1 62.1 71.1 61 73% 30.19 1022.8
20 14:56 W 5 10.00 Overcast FEW025 BKN070 OVC090 68 62.1 81% 30.2 1023.3
20 13:56 Vrbl 3 10.00 Overcast SCT021 BKN044 OVC065 66.9 62.1 84% 30.21 1023.7
20 12:56 Calm 10.00 Light Rain FEW018 BKN032 OVC055 66 62.1 87% 30.22 1024.0
20 11:56 Calm 10.00 Overcast FEW015 SCT023 OVC047 66 63 90% 30.22 1024.0
20 10:56 Calm 10.00 Overcast BKN029 OVC034 64.9 61 87% 30.23 1024.2
20 09:56 Calm 10.00 Overcast BKN019 BKN029 OVC049 63 60.1 63 55.9 90% 30.22 1024.1
20 08:56 Calm 10.00 Overcast OVC028 60.1 59 96% 30.22 1024.0
20 07:56 Calm 10.00 Overcast SCT026 BKN033 OVC041 59 57.9 96% 30.21 1023.7
20 06:56 Calm 10.00 Overcast OVC028 57.9 57.9 100% 30.2 1023.4
20 05:56 Calm 10.00 Light Rain FEW001 BKN030 OVC041 57 57 100% 30.2 1023.5
20 04:56 S 3 10.00 Overcast FEW029 BKN035 OVC042 57.9 57.9 100% 30.2 1023.4
20 03:56 Calm 10.00 Overcast OVC030 59 57.9 61 57.9 96% 30.21 1023.5
20 02:56 Calm 10.00 Overcast OVC026 59 57.9 96% 30.21 1023.5
20 01:56 NE 3 10.00 Overcast OVC026 57.9 57 97% 30.21 1023.5
20 00:56 E 5 10.00 Overcast FEW036 OVC055 57.9 57 97% 30.2 1023.4
19 23:56 Calm 10.00 Overcast BKN028 OVC034 60.1 57 90% 30.2 1023.3
19 22:56 E 6 10.00 Overcast OVC030 61 55.9 84% 30.2 1023.3
19 21:56 E 5 10.00 Overcast OVC028 60.1 57 64.9 60.1 90% 30.2 1023.2
19 20:56 SE 7 10.00 Light Rain BKN032 OVC042 62.1 55.9 80% 30.18 1022.7
19 19:56 SE 13 G 17 10.00 Overcast FEW031 BKN050 OVC090 63 55.9 78% 30.17 1022.3
19 18:56 S 8 10.00 Overcast BKN035 BKN048 OVC060 63 57 81% 30.16 1022.0
19 17:56 S 3 10.00 Light Rain BKN030 OVC035 64 57.9 81% 30.16 1021.8
19 15:56 SE 7 10.00 Mostly Cloudy BKN050 BKN070 66 60.1 66.9 60.1 81% 30.14 1021.4
19 14:56 SE 9 10.00 Overcast FEW015 BKN040 OVC075 66 60.1 81% 30.14 1021.2
19 13:56 SE 7 10.00 Overcast FEW017 SCT027 OVC032 66 61 84% 30.13 1021.0
19 12:56 S 6 10.00 Overcast OVC016 66.9 62.1 84% 30.12 1020.5
19 11:56 S 7 10.00 Mostly Cloudy BKN012 BKN019 BKN085 64.9 62.1 90% 30.11 1020.1
19 10:56 W 5 10.00 Overcast BKN012 OVC050 60.1 59 96% 30.1 1019.8
19 09:56 Calm 10.00 Mostly Cloudy BKN003 BKN090 61 60.1 61 55.9 97% 30.08 1019.2 0.01 0.02
19 08:56 Calm 10.00 Light Rain OVC005 60.1 57.9 93% 30.08 1019.2
19 07:56 Calm 10.00 Overcast OVC005 59 59 100% 30.07 1018.7
19 06:56 Calm 9.00 Overcast FEW001 BKN047 OVC060 57.9 57.9 100% 30.06 1018.5 0.01
19 05:56 S 3 3.00 Fog/Mist BKN041 BKN050 OVC070 57.9 57 97% 30.05 1018.3
19 04:56 Calm 10.00 Light Rain OVC065 55.9 55.9 100% 30.04 1017.9 0.01
19 03:56 Calm 10.00 Overcast FEW007 BKN039 OVC070 55.9 55.9 57.9 55 100% 30.04 1017.8 0.07
19 02:56 Calm 9.00 Overcast BKN001 OVC048 55.9 55.9 100% 30.05 1018.1
19 01:56 SE 5 10.00 Light Rain OVC040 57.9 57.9 100% 30.05 1018.1 0.03
19 00:56 Vrbl 3 8.00 Light Rain FEW048 SCT075 OVC090 55 55 100% 30.06 1018.4 0.04 0.04
18 23:56 Calm 10.00 Light Rain FEW004 BKN009 OVC075 55.9 55.9 100% 30.07 1019.0
18 22:56 Calm 10.00 Overcast FEW002 BKN039 OVC075 57 55.9 96% 30.07 1018.7
18 21:56 S 3 10.00 Overcast FEW028 OVC037 55.9 55.9 62.1 55.9 100% 30.07 1019.0
18 20:56 Calm 10.00 Overcast OVC023 57.9 57 97% 30.08 1019.1
18 19:56 Calm 10.00 Overcast OVC021 59 57.9 96% 30.07 1019.0
18 18:56 Calm 10.00 Overcast BKN019 BKN024 OVC033 60.1 57.9 93% 30.08 1019.2
18 17:56 W 5 10.00 Overcast FEW028 BKN038 OVC049 62.1 57.9 86% 30.09 1019.4
18 16:56 Calm 10.00 Overcast OVC023 61 57.9 90% 30.1 1019.8
18 15:56 Calm 10.00 Overcast FEW004 BKN034 OVC043 60.1 57.9 60.1 55.9 93% 30.09 1019.7
18 14:56 Calm 3.00 Fog/Mist FEW004 OVC019 57.9 57.9 100% 30.1 1019.8
18 13:56 Calm 2.50 Light Rain Fog/Mist SCT003 BKN008 OVC019 57.9 57 97% 30.09 1019.7
18 12:56 SW 3 10.00 Overcast OVC010 59 55.9 90% 30.08 1019.3
18 11:56 Calm 10.00 Overcast OVC010 57 55.9 96% 30.08 1019.2
18 10:56 S 3 10.00 Overcast SCT005 OVC012 57.9 55.9 93% 30.07 1018.9
18 09:56 Calm 10.00 Overcast BKN010 OVC016 55.9 55 57.9 54 97% 30.07 1018.8
18 08:56 Calm 10.00 Overcast SCT002 BKN018 OVC024 55.9 55 97% 30.06 1018.5
18 07:56 NE 5 10.00 Overcast OVC019 57 55 93% 30.04 1017.9
18 06:56 Calm 0.25 Fog FEW001 SCT011 OVC026 55 55 100% 30.03 1017.6
18 05:56 Calm 0.25 Fog OVC002 54 54 100% 30.02 1017.3
18 04:56 Calm 9.00 Overcast OVC004 55 55 100% 30.02 1017.2
18 03:56 Calm 0.25 Fog FEW002 BKN010 OVC048 55 55 57 54 100% 30.01 1016.9 0.04
18 02:56 Calm 2.00 Fog/Mist OVC007 55.9 55.9 100% 30 1016.5 0.01
18 01:56 Calm 6.00 Fog/Mist FEW003 BKN010 OVC017 55.9 55.9 100% 29.99 1016.3
18 00:56 Calm 0.50 Fog BKN004 BKN009 OVC044 55 55 100% 29.99 1016.2 0.03
17 23:56 Calm 2.00 Light Rain Fog/Mist BKN003 OVC007 55 55 100% 29.98 1016.0 0.02
17 22:56 W 6 1.25 Light Rain Fog/Mist BKN006 OVC010 55.9 55 97% 29.97 1015.5 0.01
17 21:56 Vrbl 3 3.00 Light Rain Fog/Mist FEW010 BKN017 OVC022 57 57 60.1 57 100% 29.96 1015.0 0.01 0.13
17 20:56 SE 5 6.00 Light Rain Fog/Mist BKN010 OVC014 57.9 57 97% 29.95 1014.7
17 19:56 SE 6 7.00 Light Rain BKN028 OVC035 57.9 57 97% 29.94 1014.2
17 18:56 E 7 10.00 Light Rain FEW011 BKN043 OVC050 57.9 57 97% 29.93 1014.0 0.03 0.12
Date Time (akdt) Wind (mph) Vis. (mi.) Weather Sky Cond. Air Dwpt Max. Min. Relative Humidity Wind Chill (°F) Heat Index (°F) altimeter (in) sea level (mb) 1 hr 3 hr 6 hr
6 hour
Temperature (ºF) Pressure Precipitation (in)